Regional Weather Roundup
Issued by NWS

Home | Current Version | Previous Version | Graphics & Text | Print | Product List | Glossary Off
Versions: 1 2 3 4 5 6 7 8 9 10 11 12 13 14 15 16 17 18 19 20 21 22 23 24 25 26 27 28 29 30 31 32 33 34 35 36 37 38 39 40 41 42 43 44 45 46 47 48 49 50

000
ASUS43 KTOP 300759
RWRKS

WEATHER ROUNDUP FOR KANSAS
NATIONAL WEATHER SERVICE GOODLAND KS
300 AM CDT TUE JUN 30 2015

NOTE:  "FAIR" INDICATES FEW OR NO CLOUDS BELOW 12,000 FEET WITH NO
SIGNIFICANT WEATHER AND/OR OBSTRUCTIONS TO VISIBILITY.

KSZ001>006-013>018-027>032-041>047-300900-
NORTHWEST KANSAS

CITY           SKY/WX    TMP DP  RH WIND       PRES   REMARKS
GOODLAND       CLEAR     66  54  65 SW8       30.09F
HAYS           CLEAR     64  50  59 NW3       30.01F
HILL CITY      CLEAR     64  54  69 CALM      30.02F
RUSSELL        CLEAR     72  58  61 S10       29.98F
$$

KSZ061>065-074>080-084>089-300900-
SOUTHWEST KANSAS

CITY           SKY/WX    TMP DP  RH WIND       PRES   REMARKS
DODGE CITY     CLEAR     69  55  60 S8        30.05S
ELKHART          N/A     75  52  44 S6          N/A
GARDEN CITY    CLEAR     65  58  78 CALM      30.07R
GREAT BEND     CLEAR     70  57  64 S8        30.02S
LIBERAL        CLEAR     66  57  72 SW7         N/A
$$

KSZ066>073-081>083-090>101-300900-
SOUTHEAST KANSAS

CITY           SKY/WX    TMP DP  RH WIND       PRES   REMARKS
CHANUTE        CLEAR     68  64  87 CALM      29.96S
COFFEYVILLE    CLEAR     66  65  96 S3        29.95F
HUTCHINSON     CLEAR     65  58  78 CALM      29.99F
MEDICINE LODGE   N/A     68  61  78 CALM      30.00S
NEWTON         CLEAR     70  55  60 SW7       30.02F
PARSONS        CLEAR     64  64 100 CALM      29.96F
WICHITA INTL   PTCLDY    69  59  70 SW5       29.98F
WICHITA JABRA  CLEAR     73  59  61 SW7       29.99S
WINFIELD       CLEAR     66  61  84 CALM      29.99F
$$

KSZ007>012-019>026-033>040-048>060-102>105-300900-
NORTHEAST KANSAS

CITY           SKY/WX    TMP DP  RH WIND       PRES   REMARKS
CONCORDIA      CLEAR     70  58  65 SW10      29.97F
EMPORIA        CLOUDY    67  59  75 CALM      29.97S
LAWRENCE       MOCLDY    64  62  93 CALM      29.93F
MANHATTAN      CLEAR     63  61  93 CALM      29.96S
OLATHE IND     CLEAR     70  64  81 CALM      29.95S
OLATHE EXE     CLEAR     69  66  90 CALM      29.93F
SALINA         CLEAR     66  59  78 S3        29.98F
TOPEKA BILLARD CLEAR     68  66  93 CALM      29.94S
TOPEKA FORBES  PTCLDY    69  63  81 CALM      29.94F
$$



USA.gov is the U.S. government's official web portal to all federal, state and local government web resources and services.